Regional Weather Roundup
Issued by NWS Green Bay, WI

Home | Current Version | Previous Version | Graphics & Text | Print | Product List | Glossary Off
Versions: 1 2 3 4 5 6 7 8 9 10 11 12 13 14 15 16 17 18 19 20 21 22 23 24 25 26 27 28 29 30 31 32 33 34 35 36 37 38 39 40 41 42 43 44 45 46 47 48 49 50

000
ASUS43 KGRB 280600
RWRGRB

NORTH-CENTRAL AND NORTHEAST WISCONSIN REGIONAL WEATHER ROUNDUP
NATIONAL WEATHER SERVICE GREEN BAY WI
100 AM CDT THU MAY 28 2015

WIZ005-009-010>012-018-019-280700-
NORTH CENTRAL WISCONSIN

CITY           SKY/WX    TMP DP  RH WIND       PRES   REMARKS
IRONWOOD       CLEAR     54  54 100 E7        30.03S
MANITOWISH WTR NOT AVBL
ARBOR VITAE    NOT AVBL
EAGLE RIVER    NOT AVBL
LAND O LAKES   NOT AVBL
RHINELANDER    CLEAR     52  51  97 CALM      30.09R FOG
PHILLIPS       NOT AVBL
ANTIGO         NOT AVBL
TOMAHAWK       NOT AVBL
MERRILL        NOT AVBL
$$

WIZ013-073-280700-
NORTHEAST WISCONSIN

CITY           SKY/WX    TMP DP  RH WIND       PRES   REMARKS
IRON MOUNTAIN  CLEAR     54  51  90 N3        30.06R
MARINETTE      CLEAR     57  54  88 W3        30.05S
$$

WIZ017-030-035>037-045-280700-
CENTRAL WISCONSIN

CITY           SKY/WX    TMP DP  RH WIND       PRES   REMARKS
MEDFORD        NOT AVBL
WAUSAU         LGT RAIN  58  57  97 CALM      30.07R
MOSINEE        NOT AVBL
MARSHFIELD     CLEAR     57  53  86 S5        30.09R
WISC RAPIDS    CLEAR     58  55  90 CALM      30.10R
STEVENS POINT  NOT AVBL
WAUPACA        NOT AVBL
SHAWANO        NOT AVBL
CLINTONVILLE   NOT AVBL
$$

WIZ038-039-048-051-280700-
FOX VALLEY

CITY           SKY/WX    TMP DP  RH WIND       PRES   REMARKS
NWS GREEN BAY  PTCLDY    59  55  87 S3        30.08R
APPLETON       NOT AVBL
OSHKOSH        MOCLDY    61  56  83 SW5       30.09R
FOND DU LAC    MOCLDY    63  58  83 S3        30.10S
$$

WIZ022-050-052-280700-
EAST CENTRAL WISCONSIN

CITY           SKY/WX    TMP DP  RH WIND       PRES   REMARKS
STURGEON BAY   CLEAR     55  52  88 SW6       30.09R
MANITOWOC      NOT AVBL
SHEBOYGAN      MOCLDY    63  58  83 W3        30.10R
$$

LMZ563-521-522-541>543-280700-
LAKESHORE

STATION/POSITION TIME  TEMP    WIND        PRES    VSBY  WAVE
                       AIR SEA DIR/SP/G                  HT/PER
                 (UTC) (F)     (DEG/KT/KT) (MB)    (MI)  (FT/S)
SHEBOYGAN LKSHOR 0500   59     210/  7/  8 1018.8S
KEWAUNEE LKSHORE 0500   56     180/  3/  5 1017.5R
ALGOMA MARINA    0538          230/ 12/ 13   N/A
NORTHPORT PIER   0500   53     140/  5/  6 1017.6R
N MID LAKE BUOY  0450   43 36  180/ 12/ 14 1018.1R         1/ 4
SISTER BAY LKSHO 0518   61        CALM       N/A
CHAMBERS ISLAND  0500   61     190/  6/  8 1017.6R
MENOMINEE LKSHOR 0500   61     220/  4/  5 1018.1R
$$


USA.gov is the U.S. government's official web portal to all federal, state and local government web resources and services.